This is the latest recevied weather packets stored in our database for station/object N5XJB. If no packets are shown the sender has not sent any weather packets the latest 10 day(s).
| Time | Temp. | Humidity | Pressure | Rain* | Wind** | Luminosity | Snow |
|---|---|---|---|---|---|---|---|
| 1777911515 | 26.67° C | 55% | 1016.8 hPa | 0 mm | - | 781 W/m² | - |
| 1777910909 | 26.11° C | 57% | 1016.8 hPa | 0 mm | - | 745 W/m² | - |
| 1777910303 | 26.67° C | 56% | 1016.8 hPa | 0 mm | - | 800 W/m² | - |
| 1777910000 | 26.67° C | 58% | 1016.8 hPa | 0 mm | - | 744 W/m² | - |
| 1777909697 | 26.67° C | 56% | 1016.8 hPa | 0 mm | - | 745 W/m² | - |
| 1777909092 | 25.56° C | 60% | 1017.1 hPa | 0 mm | - | 334 W/m² | - |
| 1777908790 | 25.56° C | 60% | 1017.1 hPa | 0 mm | - | 334 W/m² | - |
| 1777908486 | 25.56° C | 60% | 1017.1 hPa | 0 mm | - | 632 W/m² | - |
| 1777908183 | 26.11° C | 58% | 1017.1 hPa | 0 mm | - | 647 W/m² | - |
| 1777907879 | 26.11° C | 60% | 1017.1 hPa | 0 mm | - | 638 W/m² | - |
| 1777907575 | 25.56° C | 60% | 1016.8 hPa | 0 mm | - | 545 W/m² | - |
| 1777907271 | 25.56° C | 60% | 1016.8 hPa | 0 mm | - | 609 W/m² | - |
| 1777906968 | 25.56° C | 59% | 1017.1 hPa | 0 mm | - | 570 W/m² | - |
| 1777906665 | 25° C | 60% | 1017.1 hPa | 0 mm | - | 484 W/m² | - |
| 1777906361 | 25° C | 60% | 1016.8 hPa | 0 mm | - | 527 W/m² | - |
| 1777905452 | 25.56° C | 58% | 1017.1 hPa | 0 mm | - | 451 W/m² | - |
| 1777905150 | 25.56° C | 58% | 1016.8 hPa | 0 mm | - | 438 W/m² | - |
| 1777904846 | 25° C | 60% | 1016.8 hPa | 0 mm | - | 425 W/m² | - |
| 1777904544 | 24.44° C | 60% | 1017.1 hPa | 0 mm | - | 408 W/m² | - |
| 1777904240 | 23.89° C | 60% | 1017.1 hPa | 0 mm | - | 204 W/m² | - |
| 1777903937 | 23.89° C | 61% | 1016.8 hPa | 0 mm | - | 373 W/m² | - |
| 1777903634 | 24.44° C | 60% | 1017.1 hPa | 0 mm | - | 357 W/m² | - |
| 1777903027 | 23.89° C | 60% | 1016.8 hPa | 0 mm | - | 314 W/m² | - |
| 1777901816 | 22.78° C | 63% | 1017.1 hPa | 0 mm | - | 240 W/m² | - |
| 1777901210 | 21.67° C | 65% | 1017.1 hPa | 0 mm | - | 192 W/m² | - |
* Rain latest hour (hover to see other rain measurements)
** Current wind speed in m/s (hover to see current wind gust speed)